Location: Downe
(51.3167°N, 0.0500°E)
Time: 02:12:31
(UTC+00:00)

Cosmos 372 Rocket - Pass Details

Date: 17 November 2019
Orbit: 739 x 767 km, 74.1° (Epoch: 13 December)

Event Time Altitude Azimuth Distance (km) Brightness Sun altitude
Rises 06:11:19 0° 213° (SSW) 3,193 7.1 -10.6°
Reaches altitude 10° 06:13:42 10° 216° (SW) 2,268 6.3 -10.3°
Maximum altitude 06:18:48 64° 298° (WNW) 831 3.9 -9.5°
Drops below altitude 10° 06:23:54 10° 20° (NNE) 2,268 6.5 -8.8°
Sets 06:26:17 0° 24° (NNE) 3,192 7.3 -8.4°
